• In Latvia
  • List of Countries
  • For 7 days
  • Water Temperature
  • Satellite Maps
  • Weather Map
  • Weather Widgets
  • user-avatar
    Login

    Hourly Weather Nashavar

    Today, 18 September, Tuesday

    Time Temperature Precipitation Wind Pressure Humidity
    00:00 +30°C° 0 mm 1 mps 726 mmHg 33%
    01:00 +29°C° 0 mm 1 mps 726 mmHg 34%
    02:00 +29°C° 0 mm 1 mps 726 mmHg 35%
    03:00 +28°C° 0 mm 1 mps 726 mmHg 36%
    04:00 +28°C° 0 mm 1 mps 726 mmHg 36%
    05:00 +27°C° 0 mm 1 mps 726 mmHg 36%
    06:00 +28°C° 0 mm 1 mps 726 mmHg 33%
    07:00 +29°C° 0 mm 1 mps 726 mmHg 31%
    08:00 +30°C° 0 mm 1 mps 727 mmHg 28%
    09:00 +32°C° 0 mm 1 mps 727 mmHg 25%
    10:00 +33°C° 0 mm 1 mps 727 mmHg 22%
    11:00 +35°C° 0 mm 1 mps 727 mmHg 18%
    12:00 +36°C° 0 mm 1 mps 727 mmHg 18%
    13:00 +37°C° 0 mm 1 mps 727 mmHg 17%
    14:00 +37°C° 0 mm 1 mps 726 mmHg 16%
    15:00 +37°C° 0 mm 1 mps 726 mmHg 17%
    16:00 +38°C° 0 mm 2 mps 726 mmHg 18%
    17:00 +38°C° 0 mm 2 mps 725 mmHg 19%
    18:00 +37°C° 0 mm 2 mps 726 mmHg 22%
    19:00 +35°C° 0 mm 2 mps 726 mmHg 24%
    20:00 +33°C° 0 mm 1 mps 726 mmHg 27%
    21:00 +32°C° 0 mm 1 mps 726 mmHg 28%
    22:00 +32°C° 0 mm 1 mps 726 mmHg 29%
    23:00 +31°C° 0 mm 1 mps 727 mmHg 30%

    Tomorrow, 19 September, Wednesday

    Time Temperature Precipitation Wind Pressure Humidity
    00:00 +31°C° 0 mm 1 mps 726 mmHg 30%
    01:00 +30°C° 0 mm 1 mps 726 mmHg 31%
    02:00 +30°C° 0 mm 1 mps 726 mmHg 31%
    03:00 +29°C° 0 mm 1 mps 726 mmHg 32%
    04:00 +29°C° 0 mm 1 mps 726 mmHg 32%
    05:00 +28°C° 0 mm 1 mps 726 mmHg 32%
    06:00 +29°C° 0 mm 1 mps 727 mmHg 29%
    07:00 +30°C° 0 mm 1 mps 727 mmHg 27%
    08:00 +31°C° 0 mm 1 mps 727 mmHg 24%
    09:00 +32°C° 0 mm 1 mps 727 mmHg 21%
    10:00 +34°C° 0 mm 1 mps 727 mmHg 18%
    11:00 +35°C° 0 mm 1 mps 727 mmHg 15%
    12:00 +36°C° 0 mm 1 mps 727 mmHg 14%
    13:00 +37°C° 0 mm 1 mps 727 mmHg 13%
    14:00 +39°C° 0 mm 1 mps 726 mmHg 12%
    15:00 +39°C° 0 mm 1 mps 726 mmHg 14%
    16:00 +39°C° 0 mm 2 mps 726 mmHg 15%
    17:00 +39°C° 0 mm 2 mps 726 mmHg 16%
    18:00 +37°C° 0 mm 2 mps 726 mmHg 18%
    19:00 +36°C° 0 mm 2 mps 726 mmHg 21%
    20:00 +33°C° 0 mm 1 mps 726 mmHg 23%
    21:00 +33°C° 0 mm 1 mps 727 mmHg 24%
    22:00 +32°C° 0 mm 1 mps 727 mmHg 24%
    23:00 +31°C° 0 mm 1 mps 727 mmHg 25%

    Day after tomorrow, 20 September, Thursday

    Time Temperature Precipitation Wind Pressure Humidity
    00:00 +31°C° 0 mm 1 mps 727 mmHg 25%
    01:00 +30°C° 0 mm 1 mps 726 mmHg 26%
    02:00 +30°C° 0 mm 1 mps 726 mmHg 27%
    03:00 +29°C° 0 mm 1 mps 726 mmHg 26%
    04:00 +29°C° 0 mm 1 mps 726 mmHg 26%
    05:00 +28°C° 0 mm 1 mps 726 mmHg 26%
    06:00 +29°C° 0 mm 1 mps 727 mmHg 24%
    07:00 +30°C° 0 mm 1 mps 727 mmHg 21%
    08:00 +31°C° 0 mm 1 mps 727 mmHg 19%
    09:00 +33°C° 0 mm 1 mps 727 mmHg 17%
    10:00 +34°C° 0 mm 1 mps 727 mmHg 14%
    11:00 +36°C° 0 mm 1 mps 728 mmHg 12%
    12:00 +37°C° 0 mm 1 mps 727 mmHg 12%
    13:00 +37°C° 0 mm 1 mps 727 mmHg 11%
    14:00 +39°C° 0 mm 1 mps 727 mmHg 11%
    15:00 +39°C° 0 mm 2 mps 727 mmHg 12%
    16:00 +39°C° 0 mm 2 mps 726 mmHg 13%
    17:00 +39°C° 0 mm 2 mps 726 mmHg 14%
    18:00 +37°C° 0 mm 2 mps 726 mmHg 17%
    19:00 +36°C° 0 mm 2 mps 727 mmHg 19%
    20:00 +33°C° 0 mm 1 mps 727 mmHg 21%
    21:00 +33°C° 0 mm 1 mps 727 mmHg 21%
    22:00 +32°C° 0 mm 1 mps 727 mmHg 22%
    23:00 +31°C° 0 mm 1 mps 727 mmHg 22%

    21 September, Friday

    Time Temperature Precipitation Wind Pressure Humidity
    00:00 +31°C° 0 mm 1 mps 727 mmHg 23%
    01:00 +30°C° 0 mm 1 mps 727 mmHg 23%
    02:00 +30°C° 0 mm 1 mps 727 mmHg 24%
    03:00 +29°C° 0 mm 1 mps 727 mmHg 25%
    04:00 +29°C° 0 mm 1 mps 727 mmHg 25%
    05:00 +28°C° 0 mm 1 mps 727 mmHg 26%
    06:00 +29°C° 0 mm 1 mps 728 mmHg 24%
    07:00 +30°C° 0 mm 1 mps 728 mmHg 22%
    08:00 +31°C° 0 mm 1 mps 729 mmHg 20%
    09:00 +33°C° 0 mm 1 mps 729 mmHg 18%
    10:00 +34°C° 0 mm 1 mps 729 mmHg 17%
    11:00 +36°C° 0 mm 1 mps 729 mmHg 15%
    12:00 +36°C° 0 mm 1 mps 729 mmHg 14%
    13:00 +38°C° 0 mm 2 mps 728 mmHg 14%
    14:00 +39°C° 0 mm 2 mps 728 mmHg 13%
    15:00 +39°C° 0 mm 2 mps 728 mmHg 14%
    16:00 +39°C° 0 mm 2 mps 728 mmHg 15%
    17:00 +39°C° 0 mm 2 mps 727 mmHg 16%
    18:00 +37°C° 0 mm 2 mps 728 mmHg 18%
    19:00 +36°C° 0 mm 2 mps 728 mmHg 21%
    20:00 +33°C° 0 mm 1 mps 728 mmHg 23%
    21:00 +33°C° 0 mm 1 mps 729 mmHg 24%
    22:00 +32°C° 0 mm 1 mps 729 mmHg 25%
    23:00 +31°C° 0 mm 1 mps 729 mmHg 26%

    22 September, Saturday

    Time Temperature Precipitation Wind Pressure Humidity
    00:00 +31°C° 0 mm 1 mps 729 mmHg 26%
    01:00 +30°C° 0 mm 1 mps 729 mmHg 27%
    02:00 +30°C° 0 mm 1 mps 729 mmHg 28%
    03:00 +29°C° 0 mm 1 mps 729 mmHg 28%
    04:00 +29°C° 0 mm 1 mps 729 mmHg 29%
    05:00 +28°C° 0 mm 1 mps 729 mmHg 30%
    06:00 +29°C° 0 mm 1 mps 730 mmHg 28%
    07:00 +30°C° 0 mm 1 mps 730 mmHg 26%
    08:00 +31°C° 0 mm 1 mps 730 mmHg 24%
    09:00 +32°C° 0 mm 1 mps 730 mmHg 22%
    10:00 +34°C° 0 mm 1 mps 730 mmHg 21%
    11:00 +35°C° 0 mm 1 mps 730 mmHg 19%
    12:00 +36°C° 0 mm 1 mps 729 mmHg 19%
    13:00 +37°C° 0 mm 1 mps 729 mmHg 18%
    14:00 +39°C° 0 mm 1 mps 728 mmHg 17%
    15:00 +39°C° 0 mm 1 mps 728 mmHg 18%
    16:00 +39°C° 0 mm 2 mps 727 mmHg 18%
    17:00 +39°C° 0 mm 2 mps 727 mmHg 18%
    18:00 +37°C° 0 mm 2 mps 728 mmHg 21%
    19:00 +35°C° 0 mm 1 mps 728 mmHg 23%
    20:00 +34°C° 0 mm 1 mps 728 mmHg 25%
    21:00 +33°C° 0 mm 1 mps 729 mmHg 27%
    22:00 +32°C° 0 mm 1 mps 729 mmHg 28%
    23:00 +32°C° 0 mm 1 mps 729 mmHg 29%

    23 September, Sunday

    Time Temperature Precipitation Wind Pressure Humidity
    00:00 +31°C° 0 mm 1 mps 729 mmHg 30%
    01:00 +30°C° 0 mm 1 mps 729 mmHg 31%
    02:00 +30°C° 0 mm 1 mps 729 mmHg 32%
    03:00 +29°C° 0 mm 1 mps 729 mmHg 34%
    04:00 +29°C° 0 mm 1 mps 729 mmHg 35%
    05:00 +28°C° 0 mm 1 mps 729 mmHg 36%
    06:00 +29°C° 0.1 mm 1 mps 730 mmHg 36%
    07:00 +29°C° 0.1 mm 1 mps 730 mmHg 35%
    08:00 +30°C° 0.1 mm 1 mps 730 mmHg 34%
    09:00 +31°C° 0.1 mm 1 mps 730 mmHg 34%
    10:00 +32°C° 0.1 mm 1 mps 730 mmHg 34%
    11:00 +34°C° 0.1 mm 2 mps 730 mmHg 33%
    12:00 +35°C° 0 mm 2 mps 730 mmHg 32%
    13:00 +36°C° 0 mm 2 mps 729 mmHg 31%
    14:00 +37°C° 0 mm 2 mps 728 mmHg 30%
    15:00 +37°C° 0 mm 2 mps 728 mmHg 30%
    16:00 +37°C° 0 mm 2 mps 728 mmHg 30%
    17:00 +37°C° 0 mm 2 mps 728 mmHg 30%
    18:00 +36°C° 0 mm 2 mps 728 mmHg 33%
    19:00 +35°C° 0 mm 2 mps 728 mmHg 36%
    20:00 +33°C° 0 mm 1 mps 728 mmHg 39%
    21:00 +32°C° 0.1 mm 1 mps 728 mmHg 41%
    22:00 +32°C° 0.1 mm 1 mps 729 mmHg 42%
    23:00 +31°C° 0.1 mm 1 mps 729 mmHg 44%
    Show more